IZ1RFL-3 Weather Reports


Display with metric or nautical units.
time (UTC)temp
F
wind
direction
speed
MPH
gust
MPH
rain 1hr
in
rain 24hr
in
rain mn
in
humidity
%
barometer
mb
20260507094607 66 0 0.0 0.0 0.00 0.00 0.00 52 1015.7
20260507093107 63 0 0.0 0.0 0.00 0.00 0.00 60 1015.7
20260507091607 63 0 0.0 0.0 0.00 0.00 0.00 63 1015.7
20260507090107 63 0 0.0 0.0 0.00 0.00 0.00 60 1015.7
20260507084607 62 0 0.0 0.0 0.00 0.00 0.00 62 1015.5
20260507083107 60 0 0.0 0.0 0.00 0.00 0.00 69 1015.4
20260507081607 62 0 0.0 0.0 0.00 0.00 0.00 64 1015.4
20260507080107 62 0 0.0 0.0 0.00 0.00 0.00 63 1015.3
20260507074607 60 0 0.0 0.0 0.00 0.00 0.00 66 1015.2
20260507073107 58 0 0.0 0.0 0.00 0.00 0.00 70 1015.2
20260507071607 60 0 0.0 0.0 0.00 0.00 0.00 71 1015.1
20260507070107 57 0 0.0 0.0 0.00 0.00 0.00 76 1015.0
20260507064607 56 0 0.0 0.0 0.00 0.00 0.00 77 1015.0
20260507063107 56 0 0.0 0.0 0.00 0.00 0.00 79 1014.9
20260507061607 55 0 0.0 0.0 0.00 0.00 0.00 80 1014.7
20260507060107 55 0 0.0 0.0 0.00 0.00 0.00 79 1014.6
20260507054607 55 0 0.0 0.0 0.00 0.00 0.00 80 1014.4
20260507053107 55 0 0.0 0.0 0.00 0.00 0.00 80 1014.2
20260507051607 55 0 0.0 0.0 0.00 0.00 0.00 80 1013.9
20260507050107 56 0 0.0 0.0 0.00 0.00 0.00 79 1013.6
20260507044607 55 0 0.0 0.0 0.00 0.00 0.00 80 1013.5
20260507043107 55 0 0.0 0.0 0.00 0.00 0.00 80 1013.4
20260507041607 55 0 0.0 0.0 0.00 0.00 0.00 80 1013.2
20260507040107 55 0 0.0 0.0 0.00 0.00 0.00 79 1013.4
20260507034607 55 0 0.0 0.0 0.00 0.00 0.00 81 1013.3
20260507033107 54 0 0.0 0.0 0.00 0.00 0.00 81 1013.1
20260507031607 55 0 0.0 0.0 0.00 0.00 0.00 80 1013.0
20260507030107 55 0 0.0 0.0 0.00 0.00 0.00 80 1012.9
20260507024607 55 0 0.0 0.0 0.00 0.00 0.00 80 1012.9
20260507023107 56 0 0.0 0.0 0.00 0.00 0.00 79 1013.0
20260507021607 56 0 0.0 0.0 0.00 0.00 0.00 79 1012.9
20260507020107 55 0 0.0 0.0 0.00 0.00 0.00 82 1012.8
20260507014607 55 0 0.0 0.0 0.00 0.00 0.00 81 1012.6
20260507013107 56 0 0.0 0.0 0.00 0.00 0.00 80 1012.4
20260507011607 56 0 0.0 0.0 0.00 0.00 0.00 80 1012.4
20260507010107 56 0 0.0 0.0 0.00 0.00 0.00 81 1012.3
20260507004607 57 0 0.0 0.0 0.00 0.00 0.00 81 1012.4
20260507003107 57 0 0.0 0.0 0.00 0.00 0.00 80 1012.4
20260507001607 57 0 0.0 0.0 0.00 0.00 0.00 79 1012.4
20260507000107 57 0 0.0 0.0 0.00 0.00 0.00 80 1012.3
20260506234607 57 0 0.0 0.0 0.00 0.00 0.00 80 1012.1
20260506233107 57 0 0.0 0.0 0.00 0.00 0.00 80 1012.1
20260506231607 57 0 0.0 0.0 0.00 0.00 0.00 80 1012.2
20260506230107 57 0 0.0 0.0 0.00 0.00 0.00 78 1012.1
20260506224607 58 0 0.0 0.0 0.00 0.00 0.00 79 1012.0
20260506223107 58 0 0.0 0.0 0.00 0.00 0.00 77 1011.8
20260506221607 58 0 0.0 0.0 0.00 0.00 0.00 77 1011.6
20260506220107 58 0 0.0 0.0 0.00 0.00 0.00 78 1011.6
20260506214607 58 0 0.0 0.0 0.00 0.00 0.00 77 1011.4
20260506213107 60 0 0.0 0.0 0.00 0.00 0.00 74 1011.3
20260506211607 59 0 0.0 0.0 0.00 0.00 0.00 73 1011.4
20260506210107 59 0 0.0 0.0 0.00 0.00 0.00 75 1011.4
20260506204607 60 0 0.0 0.0 0.00 0.00 0.00 73 1011.1
20260506203107 60 0 0.0 0.0 0.00 0.00 0.00 73 1010.7
20260506201607 60 0 0.0 0.0 0.00 0.00 0.00 72 1010.6
20260506200107 61 0 0.0 0.0 0.00 0.00 0.00 70 1010.3
20260506194607 61 0 0.0 0.0 0.00 0.00 0.00 66 1009.8
20260506193107 62 0 0.0 0.0 0.00 0.00 0.00 67 1009.4
20260506191607 61 0 0.0 0.0 0.00 0.00 0.00 68 1009.1
20260506190107 62 0 0.0 0.0 0.00 0.00 0.00 66 1009.0
20260506184607 63 0 0.0 0.0 0.00 0.00 0.00 67 1008.7
20260506183107 63 0 0.0 0.0 0.00 0.00 0.00 64 1008.4
20260506181607 64 0 0.0 0.0 0.00 0.00 0.00 62 1008.3
20260506180107 65 0 0.0 0.0 0.00 0.00 0.00 60 1008.1
20260506174607 66 0 0.0 0.0 0.00 0.00 0.00 59 1008.0
20260506173107 66 0 0.0 0.0 0.00 0.00 0.00 61 1007.7
20260506171607 65 0 0.0 0.0 0.00 0.00 0.00 60 1007.7
20260506170107 65 0 0.0 0.0 0.00 0.00 0.00 57 1007.3
20260506164607 65 0 0.0 0.0 0.00 0.00 0.00 56 1007.0
20260506163107 65 0 0.0 0.0 0.00 0.00 0.00 57 1007.0
20260506161607 66 0 0.0 0.0 0.00 0.00 0.00 54 1006.9
20260506160107 66 0 0.0 0.0 0.00 0.00 0.00 53 1007.0
20260506154607 66 0 0.0 0.0 0.00 0.00 0.00 56 1006.9
20260506153107 64 0 0.0 0.0 0.00 0.00 0.00 62 1006.8
20260506151607 66 0 0.0 0.0 0.00 0.00 0.00 55 1007.0
20260506150107 67 0 0.0 0.0 0.00 0.00 0.00 51 1006.9
20260506144607 68 0 0.0 0.0 0.00 0.00 0.00 48 1007.0
20260506143106 69 0 0.0 0.0 0.00 0.00 0.00 44 1006.9
20260506141606 69 0 0.0 0.0 0.00 0.00 0.00 45 1007.1
20260506140107 69 0 0.0 0.0 0.00 0.00 0.00 47 1007.2
20260506134606 69 0 0.0 0.0 0.00 0.00 0.00 47 1007.3
20260506133106 72 0 0.0 0.0 0.00 0.00 0.00 45 1007.5
20260506131606 71 0 0.0 0.0 0.00 0.00 0.00 51 1007.5
20260506130106 73 0 0.0 0.0 0.00 0.00 0.00 49 1007.7
20260506124606 73 0 0.0 0.0 0.00 0.00 0.00 47 1007.8
20260506123106 72 0 0.0 0.0 0.00 0.00 0.00 51 1007.8
20260506121606 72 0 0.0 0.0 0.00 0.00 0.00 49 1007.9
20260506120106 74 0 0.0 0.0 0.00 0.00 0.00 48 1008.0
20260506114607 73 0 0.0 0.0 0.00 0.00 0.00 48 1008.0
20260506113107 70 0 0.0 0.0 0.00 0.00 0.00 54 1008.1
20260506111606 69 0 0.0 0.0 0.00 0.00 0.00 54 1008.2
20260506110106 66 0 0.0 0.0 0.00 0.00 0.00 57 1008.4
20260506104606 69 0 0.0 0.0 0.00 0.00 0.00 53 1008.5
20260506103106 69 0 0.0 0.0 0.00 0.00 0.00 55 1008.7
20260506101606 64 0 0.0 0.0 0.00 0.00 0.00 61 1008.8
20260506100106 64 0 0.0 0.0 0.00 0.00 0.00 60 1008.9